View from above orbital plane
|
View from above satellite
|
Ground track
|
The orbit data is extracted from the following two-line orbital elements,
1 13403U 82079B 21018.76471920 -.00000162 00000-0 -12120-4 0 9996
2 13403 81.1672 206.1887 0031579 272.3464 87.4144 15.07298713 94254
Epoch (UTC): | 18 January 2021 18:21:11 |
Eccentricity: | 0.0031579 |
inclination: | 81.1672° |
perigee height: | 522 km |
apogee height: | 566 km |
right ascension of ascending node: | 206.1887° |
argument of perigee: | 272.3464° |
revolutions per day: | 15.07298713 |
mean anomaly at epoch: | 87.4144° |
orbit number at epoch: | 9425 |
The dashed part of the orbit path shows where the satellite is in the earth's shadow,
|
|